TimeEDT,TemperatureF,Dew PointF,Humidity,Sea Level PressureIn,VisibilityMPH,Wind Direction,Wind SpeedMPH,Gust SpeedMPH,PrecipitationIn,Events,Conditions,WindDirDegrees,DateUTC
12:15 AM,21.2,21.2,100,30.36,10.0,Calm,Calm,-,N/A,,Clear,0,2013-03-10 05:15:00
12:35 AM,21.2,15.8,80,30.36,9.0,Calm,Calm,-,N/A,,Clear,0,2013-03-10 05:35:00
12:55 AM,21.2,6.8,54,30.36,10.0,Calm,Calm,-,N/A,,Clear,0,2013-03-10 05:55:00
1:15 AM,19.4,-9999,N/A,30.37,10.0,Calm,Calm,-,N/A,,Clear,0,2013-03-10 06:15:00
1:35 AM,19.4,12.2,74,30.36,10.0,Calm,Calm,-,N/A,,Clear,0,2013-03-10 06:35:00
3:15 AM,17.6,-9999,N/A,30.36,10.0,Calm,Calm,-,N/A,,Clear,0,2013-03-10 07:15:00
3:35 AM,17.6,6.8,63,30.36,10.0,WNW,4.6,-,N/A,,Clear,290,2013-03-10 07:35:00
3:55 AM,19.4,15.8,86,30.36,10.0,Calm,Calm,-,N/A,,Clear,0,2013-03-10 07:55:00
4:15 AM,17.6,12.2,79,30.37,10.0,Calm,Calm,-,N/A,,Clear,0,2013-03-10 08:15:00
4:35 AM,17.6,5.0,58,30.37,10.0,Calm,Calm,-,N/A,,Clear,0,2013-03-10 08:35:00
4:55 AM,17.6,17.6,100,30.37,10.0,Calm,Calm,-,N/A,,Clear,0,2013-03-10 08:55:00
5:15 AM,17.6,-0.4,45,30.37,10.0,Calm,Calm,-,N/A,,Clear,0,2013-03-10 09:15:00
5:35 AM,15.8,14.0,93,30.37,10.0,WSW,4.6,-,N/A,,Clear,250,2013-03-10 09:35:00
5:55 AM,15.8,10.4,79,30.37,10.0,Calm,Calm,-,N/A,,Clear,0,2013-03-10 09:55:00
6:15 AM,17.6,17.6,100,30.37,10.0,Calm,Calm,-,N/A,,Clear,0,2013-03-10 10:15:00
6:35 AM,15.8,3.2,58,30.37,10.0,Calm,Calm,-,N/A,,Clear,0,2013-03-10 10:35:00
6:55 AM,15.8,14.0,93,30.37,10.0,Calm,Calm,-,N/A,,Clear,0,2013-03-10 10:55:00
7:15 AM,15.8,15.8,100,30.38,10.0,WSW,3.5,-,N/A,,Clear,250,2013-03-10 11:15:00
8:35 AM,24.8,8.6,50,30.40,10.0,Calm,Calm,-,N/A,,Clear,0,2013-03-10 12:35:00
8:55 AM,28.4,24.8,86,30.40,10.0,Calm,Calm,-,N/A,,Clear,0,2013-03-10 12:55:00
9:15 AM,28.4,23.0,80,30.41,10.0,North,4.6,-,N/A,,Clear,360,2013-03-10 13:15:00
9:35 AM,30.2,24.8,80,30.41,10.0,North,3.5,-,N/A,,Clear,360,2013-03-10 13:35:00
9:55 AM,30.2,21.2,69,30.41,10.0,Calm,Calm,-,N/A,,Clear,0,2013-03-10 13:55:00
10:15 AM,32.0,24.8,75,30.41,10.0,Calm,Calm,-,N/A,,Clear,0,2013-03-10 14:15:00
10:35 AM,33.8,26.6,75,30.40,10.0,Calm,Calm,-,N/A,,Clear,0,2013-03-10 14:35:00
10:55 AM,33.8,24.8,70,30.42,10.0,NNW,3.5,-,N/A,,Scattered Clouds,340,2013-03-10 14:55:00
11:15 AM,33.8,21.2,60,30.41,10.0,NNE,3.5,-,N/A,,Partly Cloudy,20,2013-03-10 15:15:00
11:35 AM,35.6,23.0,60,30.40,10.0,North,3.5,-,N/A,,Clear,360,2013-03-10 15:35:00
11:55 AM,35.6,24.8,65,30.39,10.0,North,4.6,-,N/A,,Clear,360,2013-03-10 15:55:00
12:15 PM,37.4,24.8,60,30.38,10.0,North,5.8,-,N/A,,Clear,10,2013-03-10 16:15:00
12:35 PM,37.4,24.8,60,30.38,10.0,ESE,6.9,-,N/A,,Clear,120,2013-03-10 16:35:00
12:55 PM,39.2,26.6,61,30.38,10.0,SE,5.8,-,N/A,,Clear,130,2013-03-10 16:55:00
1:15 PM,37.4,24.8,60,30.37,10.0,SE,6.9,-,N/A,,Clear,140,2013-03-10 17:15:00
1:35 PM,37.4,23.0,56,30.37,10.0,ESE,6.9,-,N/A,,Clear,110,2013-03-10 17:35:00
1:55 PM,37.4,28.4,70,30.35,10.0,SE,6.9,-,N/A,,Clear,130,2013-03-10 17:55:00
2:15 PM,39.2,24.8,56,30.36,10.0,South,4.6,-,N/A,,Clear,170,2013-03-10 18:15:00
2:35 PM,37.4,24.8,60,30.35,10.0,SE,9.2,-,N/A,,Clear,130,2013-03-10 18:35:00
2:55 PM,37.4,26.6,65,30.35,10.0,ESE,9.2,-,N/A,,Clear,120,2013-03-10 18:55:00
3:15 PM,37.4,26.6,65,30.34,10.0,South,6.9,-,N/A,,Clear,170,2013-03-10 19:15:00
3:35 PM,39.2,24.8,56,30.34,10.0,SSE,6.9,-,N/A,,Clear,160,2013-03-10 19:35:00
3:55 PM,37.4,26.6,65,30.34,10.0,ESE,6.9,-,N/A,,Clear,120,2013-03-10 19:55:00
4:15 PM,37.4,26.6,65,30.34,10.0,SSE,6.9,-,N/A,,Clear,160,2013-03-10 20:15:00
4:35 PM,37.4,24.8,60,30.34,10.0,SSE,6.9,-,N/A,,Clear,150,2013-03-10 20:35:00
4:55 PM,37.4,26.6,65,30.34,10.0,SE,8.1,-,N/A,,Clear,140,2013-03-10 20:55:00
5:15 PM,37.4,28.4,70,30.33,10.0,SE,8.1,-,N/A,,Clear,130,2013-03-10 21:15:00
5:35 PM,35.6,26.6,70,30.33,10.0,SE,5.8,-,N/A,,Clear,140,2013-03-10 21:35:00
5:55 PM,35.6,23.0,60,30.33,10.0,SSE,3.5,-,N/A,,Clear,150,2013-03-10 21:55:00
6:15 PM,35.6,24.8,65,30.33,10.0,SSE,4.6,-,N/A,,Clear,150,2013-03-10 22:15:00
6:35 PM,33.8,24.8,70,30.33,10.0,SSE,6.9,-,N/A,,Partly Cloudy,150,2013-03-10 22:35:00
6:55 PM,33.8,26.6,75,30.33,10.0,SSE,4.6,-,N/A,,Partly Cloudy,150,2013-03-10 22:55:00
7:15 PM,33.8,28.4,81,30.33,10.0,SSE,4.6,-,N/A,,Partly Cloudy,150,2013-03-10 23:15:00
7:35 PM,33.8,26.6,75,30.34,10.0,South,3.5,-,N/A,,Partly Cloudy,180,2013-03-10 23:35:00
8:15 PM,33.8,24.8,70,30.34,10.0,Calm,Calm,-,N/A,,Partly Cloudy,0,2013-03-11 00:15:00
8:35 PM,33.8,26.6,75,30.34,10.0,Calm,Calm,-,N/A,,Scattered Clouds,0,2013-03-11 00:35:00
8:55 PM,33.8,26.6,75,30.34,10.0,Calm,Calm,-,N/A,,Scattered Clouds,0,2013-03-11 00:55:00
9:15 PM,33.8,28.4,81,30.33,10.0,Calm,Calm,-,N/A,,Partly Cloudy,0,2013-03-11 01:15:00
9:35 PM,33.8,28.4,81,30.32,10.0,Calm,Calm,-,N/A,,Partly Cloudy,0,2013-03-11 01:35:00
10:15 PM,33.8,24.8,70,30.30,10.0,SSE,3.5,-,N/A,,Overcast,150,2013-03-11 02:15:00
10:35 PM,33.8,26.6,75,30.30,10.0,Calm,Calm,-,N/A,,Mostly Cloudy,0,2013-03-11 02:35:00
10:55 PM,33.8,26.6,75,30.32,10.0,West,4.6,-,N/A,,Mostly Cloudy,260,2013-03-11 02:55:00
11:15 PM,33.8,26.6,75,30.32,10.0,Calm,Calm,-,N/A,,Overcast,0,2013-03-11 03:15:00
11:35 PM,33.8,28.4,81,30.31,10.0,Calm,Calm,-,N/A,,Overcast,0,2013-03-11 03:35:00
11:55 PM,33.8,28.4,81,30.31,10.0,Calm,Calm,-,N/A,,Mostly Cloudy,0,2013-03-11 03:55:00
12:15 AM,33.8,26.6,75,30.29,10.0,South,3.5,-,N/A,,Clear,170,2013-03-11 04:15:00
12:35 AM,33.8,26.6,75,30.29,10.0,Calm,Calm,-,N/A,,Partly Cloudy,0,2013-03-11 04:35:00